sim
Sign-in with your pilot id or email,
or register
Callsign
Passwort

Schedule Details

Flight Number: RYR3525 (2)
Departure: London Luton Airport (EGGW) at 13:20
Arrival: Fuerteventura Airport (GCFV) at 17:40
Route: Ryanair Passenger Schedule. Enter filed route here before submitting Pirep.

Weather Information
Getting current METAR information for EGGW 192150Z AUTO 01005KT 9999 NCD 12/08 Q1031
Getting current METAR information for GCFV 192200Z AUTO 36015KT 9999 FEW030 BKN045 18/12 Q1018

Schedule Frequency

Route Map